Regional Weather Roundup
Issued by NWS

Home | Current Version | Previous Version | Graphics & Text | Print | Product List | Glossary On
Versions: 1 2 3 4 5 6 7 8 9 10 11 12 13 14 15 16 17 18 19 20 21 22 23 24 25 26 27 28 29 30 31 32 33 34 35 36 37 38 39 40 41 42 43 44 45 46 47 48 49 50
000
ASUS45 KPSR 062210
RWRAZ

ARIZONA REGIONAL HOURLY WEATHER ROUNDUP
NATIONAL WEATHER SERVICE PHOENIX AZ
300 PM MST WED MAY 06 2015

NOTE: FAIR INDICATES FEW OR NO CLOUDS BELOW 12,000 FEET WITH NO
SIGNIFICANT WEATHER AND/OR OBSTRUCTIONS TO VISIBILITY.

AZZ001>003-036-062300-
NORTHWEST ARIZONA

CITY           SKY/WX    TMP DP  RH WIND       PRES   REMARKS
BULLHEAD CITY  MOSUNNY   84  39  20 S22G31    29.64F
KINGMAN        SUNNY     75  30  19 SW21G30   29.76F
$$

AZZ004>008-015-016-018-062300-
NORTH CENTRAL ARIZONA

CITY           SKY/WX    TMP DP  RH WIND       PRES   REMARKS
GRAND CANYON   PTSUNNY   63  26  24 S14G26    29.88F
WILLIAMS       MOSUNNY   61  30  31 SW17G25   29.98F
PRESCOTT       MOSUNNY   68  24  19 SW15G22   29.86F
FLAGSTAFF      SUNNY     58  34  40 S14G30    29.93F
PAYSON         MOSUNNY   68  32  26 SW12G21   29.89F
PAGE           SUNNY     76  26  15 SW10G18   29.73F
$$

AZZ009>014-017-062300-
NORTHEAST ARIZONA

CITY           SKY/WX    TMP DP  RH WIND       PRES   REMARKS
WINSLOW        MOSUNNY   74  27  17 S21G26    29.82F
SAINT JOHNS    MOSUNNY   70  27  20 SW16G25   29.86F
WINDOW ROCK    MOSUNNY   62  36  37 CALM      29.90F
SHOW LOW       MOSUNNY   61  28  29 S18G25    29.94F
$$

AZZ023-062300-
GREATER PHOENIX AREA

CITY           SKY/WX    TMP DP  RH WIND       PRES   REMARKS
PHOENIX        PTSUNNY   87  31  13 VRB6G16   29.68F
GLENDALE       PTSUNNY   88  32  13 SE10G17   29.70F
LUKE AFB       MOSUNNY   87  36  16 SW7G16    29.68F
DEER VALLEY    SUNNY     82  29  14 S7        29.70F
SCOTTSDALE     MOSUNNY   84  29  13 VRB7G18   29.72F
MESA-FALCON    PTSUNNY   86  30  13 S9        29.71F
MESA-GATEWAY   PTSUNNY   84  32  15 VRB7      29.73F
CHANDLER       MOSUNNY   86  30  13 S9        29.70F
$$

AZZ027-028-062300-
SOUTHWEST MARICOPA COUNTY AND PINAL COUNTY

CITY           SKY/WX    TMP DP  RH WIND       PRES   REMARKS
CASA GRANDE    SUNNY     88  30  12 SW16G26   29.69F
GILA BEND      FAIR      88  36  15 S18G31    29.68F
$$

AZZ503-504-507>509-062300-
SOUTHEAST ARIZONA

CITY           SKY/WX    TMP DP  RH WIND       PRES   REMARKS
TUCSON         SUNNY     84  23  10 SW12G21   29.77F
DAVIS-MONTHAN  MOSUNNY   84  20   9 W16G23    29.75F
NOGALES        SUNNY     80  24  12 SW20G33   29.85F
SIERRA VISTA   SUNNY     77  10   8 SW18G28   29.88F
DOUGLAS        SUNNY     79  18  10 W15       29.85F
SAFFORD        SUNNY     83  27  13 SW6       29.75F
$$

AZZ020-021-025-026-031-062300-
SOUTHWEST ARIZONA

CITY           SKY/WX    TMP DP  RH WIND       PRES   REMARKS
YUMA           MOSUNNY   85  44  23 S9        29.69F
$$

CAZ031-033-041-043-047-048-061-062300-
SOUTHERN CALIFORNIA

CITY           SKY/WX    TMP DP  RH WIND       PRES   REMARKS
DOWNTOWN L.A.  CLOUDY    66  50  56 CALM      29.86S
L.A. AIRPORT   MOSUNNY   63  49  60 W14       29.87F
SAN DIEGO      PTSUNNY   66  52  60 W10       29.90S
BURBANK        CLOUDY    64  47  53 SW10      29.85S
ONTARIO        CLOUDY    66  46  48 SW10      29.85F
RIVERSIDE      PTSUNNY   67  47  48 W14       29.85F
PALM SPRINGS   MOSUNNY   83  41  22 NW18G30   29.71F
EL CENTRO NAS  MOSUNNY   85  41  21 VRB5      29.69F
IMPERIAL       SUNNY     83  41  22 S8        29.68F
BLYTHE         SUNNY     85  44  23 S17       29.68F
NEEDLES        SUNNY     87  37  17 S15G26    29.66F
$$

NVZ020-UTZ003-062300-
SOUTHERN NEVADA-UTAH

CITY           SKY/WX    TMP DP  RH WIND       PRES   REMARKS
LAS VEGAS      MOSUNNY   85  22  10 S20G26    29.59F
SALT LAKE CITY LGT RAIN  54  48  80 E13       29.75F
$$

NMZ009-TXZ055-062300-
NEW MEXICO-WEST TEXAS

CITY           SKY/WX    TMP DP  RH WIND       PRES   REMARKS
ALBUQUERQUE    LGT RAIN  68  37  32 SW12G29   29.86F
EL PASO        MOSUNNY   82  27  13 W12G21    29.82F
$$


........................KEY........................
SKY/WX - SKY CONDITION/WEATHER
TMP    - TEMPERATURE IN FAHRENHEIT
DP     - DEW POINT IN FAHRENHEIT
RH     - RELATIVE HUMIDITY IN PERCENT
WIND   - DIRECTION AND SPEED IN MILES PER HOUR (MPH)
VRB    - VARIABLE WIND DIRECTION
PRES   - MEAN SEA LEVEL PRESSURE IN INCHES OF MERCURY
         F - FALLING PRESSURE   R - RISING PRESSURE
         S - STEADY PRESSURE
VSB    - VISIBILITY IN MILES
HX     - HEAT INDEX IN FAHRENHEIT
WCI    - WIND CHILL INDEX IN FAHRENHEIT
TC     - TEMPERATURE IN CELSIUS WHICH IS ALSO KNOWN AS
         TEMPERATURE IN CENTIGRADE
AFB    - AIR FORCE BASE
         LUKE AFB IS LUKE AIR FORCE BASE
         DAVIS-MONTHAN IS DAVIS-MONTHAN AIR FORCE BASE
NAS    - NAVAL AIR STATION
         EL CENTRO NAS IS EL CENTRO NAVAL AIR STATION
N/A    - NOT AVAILABLE




USA.gov is the U.S. government's official web portal to all federal, state and local government web resources and services.